Wind_Speed
10 7 5 7 8 3 13 16 20 17 17 14 14 10 10 5 5 5 19 17 18 16 16 14 14 15 16 14 13 12 12 12 11 9 8 7 7 6 5 5 5 3 3 3 4 4 8 8 10
12 9 21 18 10 2 17 17 17 11 9 12 8 7 3 4 4 11 19 19 17 15 14 14 14 14 14 13 12 11 10 10 9 8 7 5 5 5 4 4 4 4 5 5 8 8 7 11 15
12 10 10 12 16 11 7 8 10 5 4 12 12 10 11 9 14 15 16 19 17 15 14 14 12 13 13 12 11 11 9 8 8 7 5 5 4 4 4 4 5 7 8 9 11 11 8 8 6
22 19 8 4 16 14 8 8 6 4 8 4 1 6 10 6 8 4 15 19 17 15 14 11 12 12 12 11 10 9 8 7 6 6 5 4 4 5 6 6 7 7 9 10 9 7 7 8 3
18 15 11 10 21 15 11 7 2 8 15 13 7 16 12 7 2 4 12 17 19 17 14 13 12 11 12 10 9 7 6 5 5 5 4 5 6 7 7 7 7 8 9 8 9 7 5 2 1
15 14 7 10 9 13 13 8 2 6 6 3 19 15 9 11 8 4 11 13 19 16 13 12 10 9 11 10 8 6 4 4 5 5 6 6 7 7 7 6 7 10 9 8 9 8 5 3 3
4 12 12 9 14 9 10 7 10 8 10 4 3 5 11 14 10 8 17 10 14 12 11 10 9 8 8 9 8 6 3 3 4 5 5 6 7 7 6 6 7 8 12 11 7 4 3 2 4
6 9 14 13 16 8 10 6 9 14 12 6 4 5 9 20 12 13 13 10 11 11 12 11 10 9 8 8 7 4 1 2 4 3 4 5 6 4 6 6 4 8 2 9 9 4 4 3 5
10 13 10 8 13 10 9 8 4 4 5 9 1 5 5 13 14 15 18 15 9 14 13 13 11 10 9 9 9 6 2 1 3 4 6 5 3 6 3 2 5 4 4 4 5 5 5 5 8
12 4 2 9 8 6 12 7 2 7 11 8 8 4 6 15 18 17 14 14 7 10 12 15 13 11 10 9 10 7 3 2 4 5 7 5 3 1 2 2 5 4 3 5 7 4 5 6 8
6 5 5 5 8 14 6 12 5 7 11 13 11 9 12 17 18 15 12 7 12 8 12 17 16 14 11 11 9 6 4 1 5 6 4 6 6 5 2 5 1 1 3 4 5 4 4 7 8
2 5 5 2 10 11 7 8 10 14 6 7 5 10 8 5 17 17 18 13 9 11 12 8 13 14 8 5 7 5 8 4 2 5 5 5 5 4 5 6 6 3 6 6 5 3 4 5 9
4 6 4 6 9 9 8 7 8 5 12 7 3 11 8 12 12 19 15 17 11 14 10 7 15 10 7 8 10 9 8 1 1 3 3 3 4 3 7 5 6 2 2 6 5 3 1 4 8
9 9 7 6 5 8 3 9 9 10 13 11 12 11 6 9 12 15 23 20 16 14 13 13 16 15 10 8 11 5 3 6 2 2 2 4 1 0 4 2 7 3 3 2 3 4 0 1 5
9 10 11 10 4 5 9 11 15 12 9 3 12 13 8 10 10 16 16 17 16 16 15 14 16 13 11 18 10 8 8 7 6 3 3 3 3 2 2 1 2 3 5 7 8 5 2 2 2
12 11 17 8 9 3 9 13 16 10 11 7 13 15 13 15 3 10 16 22 20 12 18 19 15 7 7 13 15 11 11 6 7 4 3 5 6 4 3 4 3 3 3 2 4 5 2 3 2
13 21 15 8 7 5 5 15 10 7 8 6 12 20 13 14 12 9 17 23 18 18 20 20 11 14 11 14 17 15 14 11 8 6 3 5 9 4 6 3 2 2 6 5 10 7 3 4 2
12 9 9 9 8 6 10 10 10 12 4 16 14 22 17 10 13 8 13 15 21 21 14 18 16 16 13 14 13 15 13 12 10 7 4 5 9 7 8 5 4 2 6 5 6 5 6 7 4
11 9 12 14 15 5 5 10 15 10 15 11 16 11 21 23 12 15 16 23 26 21 17 12 18 17 10 8 9 12 11 12 11 9 5 4 7 9 10 8 6 2 2 1 2 2 2 5 5
11 9 13 17 2 5 8 12 13 21 25 17 19 21 16 35 2 24 18 26 27 23 17 20 9 14 12 12 9 10 12 12 11 10 7 4 7 9 10 9 10 6 5 3 2 2 2 2 3
8 14 12 16 12 14 15 13 18 27 22 17 10 13 16 27 21 17 11 29 31 20 22 14 10 8 11 11 15 14 13 13 13 10 6 5 8 10 8 12 11 9 6 4 6 3 4 4 4
17 18 16 12 14 16 19 3 16 20 14 5 9 12 12 13 14 15 18 32 32 28 21 8 11 10 10 12 10 10 13 13 12 15 9 7 9 10 10 9 10 10 7 7 5 2 5 4 5
17 17 16 16 18 23 3 2 8 10 12 9 7 11 16 13 21 13 12 34 34 34 26 23 15 10 11 4 5 9 13 15 16 14 12 10 11 12 12 11 10 10 9 9 8 5 4 2 3
11 14 19 20 21 8 11 9 9 5 9 12 9 9 13 13 13 18 12 19 44 14 24 19 19 14 9 2 4 4 7 13 18 17 10 12 13 12 10 12 10 11 9 8 8 4 3 2 2
12 17 19 12 5 15 10 3 9 12 5 9 7 5 8 12 6 14 17 17 16 20 15 26 21 17 12 5 6 7 6 8 14 16 13 3 12 9 8 12 10 10 8 6 7 6 6 4 3
15 15 16 4 3 6 15 10 6 6 6 9 14 2 6 2 8 10 10 6 15 4 3 29 28 26 20 10 6 8 7 7 9 14 14 9 8 7 10 13 11 8 7 7 6 7 8 5 3
11 17 18 18 24 4 6 4 4 13 1 4 15 8 8 5 2 6 5 7 6 16 9 11 12 5 5 7 6 7 7 6 7 10 12 9 8 8 11 11 9 10 10 9 7 7 7 4 4
13 13 15 13 3 5 8 8 6 8 9 4 16 18 9 9 5 6 5 5 5 6 4 4 5 4 2 7 8 7 7 7 6 9 9 7 10 11 14 14 12 13 12 9 9 10 8 6 5
18 18 16 19 12 4 4 4 8 11 8 6 15 13 10 8 10 10 5 4 6 3 2 0 4 7 4 7 5 5 6 8 5 6 8 8 8 11 14 7 4 8 10 8 7 9 7 7 5
11 13 15 13 12 22 6 3 9 6 13 17 5 2 3 7 7 9 4 5 7 8 6 5 8 5 6 12 8 6 5 5 5 4 7 9 7 12 11 12 7 9 8 9 9 9 9 9 9
Wind_Direction
49 80 48 236 118 248 78 75 109 89 80 79 96 115 129 124 203 158 153 142 148 142 141 146 155 150 148 150 153 151 151 150 146 148 152 163 163 173 180 187 198 207 222 227 265 241 214 193 186
65 33 64 80 103 292 76 90 88 93 100 99 61 92 83 59 156 171 150 145 152 146 142 143 150 150 151 152 154 153 155 151 148 157 168 173 184 183 197 216 232 249 261 261 281 261 253 244 215
34 24 50 59 106 100 87 86 83 88 92 120 99 54 18 79 145 160 137 145 160 154 146 145 147 144 152 155 159 157 158 162 159 172 187 199 212 221 232 240 249 254 260 264 275 249 246 266 272
29 37 46 346 82 69 88 105 74 64 46 28 21 349 61 70 85 148 150 157 161 162 153 147 141 160 153 155 162 164 163 167 182 201 210 234 253 258 255 256 253 256 266 272 272 256 237 262 36
359 360 43 27 63 48 47 30 115 123 87 77 54 99 121 158 148 241 160 156 157 168 158 151 149 144 158 153 162 165 173 180 205 227 242 249 258 262 267 266 271 270 263 267 271 258 235 194 241
325 327 17 46 42 40 28 30 7 329 16 119 103 122 113 171 206 186 181 131 148 166 161 159 152 159 156 156 161 167 183 200 217 232 239 246 254 258 268 278 278 272 267 268 264 263 216 192 192
339 336 332 63 37 70 30 24 353 11 28 176 28 305 171 170 210 174 183 208 143 167 167 169 160 165 162 157 165 174 181 226 245 242 251 254 265 260 273 286 289 327 250 255 265 239 185 171 165
11 3 41 41 38 44 34 359 332 10 70 18 81 349 177 176 206 168 188 197 196 174 181 178 172 170 168 166 168 170 158 315 291 263 238 256 260 281 293 307 328 355 12 251 243 228 191 186 160
338 292 355 1 12 51 5 338 59 14 294 192 1 347 347 174 186 178 187 201 179 176 177 183 178 184 181 184 180 181 172 302 290 254 225 226 236 253 241 324 5 29 332 168 182 186 181 177 164
356 35 322 9 345 334 349 9 356 278 301 323 323 330 121 178 186 196 216 218 209 196 189 188 187 196 199 198 191 191 201 339 296 247 217 208 247 177 59 68 28 34 52 151 157 181 177 167 166
279 23 353 313 349 5 351 342 271 317 309 335 286 164 155 192 194 220 238 265 224 225 192 179 191 200 194 198 194 203 212 244 267 245 178 177 260 269 39 5 159 37 89 128 161 186 165 169 148
357 318 324 338 332 7 3 6 330 343 349 16 80 170 173 235 208 226 230 257 265 227 213 213 192 202 186 197 204 208 213 202 240 227 188 205 181 172 91 78 76 135 124 124 119 133 180 186 160
289 314 279 303 326 6 2 312 326 15 317 129 123 237 249 194 221 231 237 248 235 242 223 207 196 217 207 249 199 192 216 255 176 137 257 215 145 151 62 33 7 173 126 122 118 118 74 158 168
290 281 271 286 320 324 300 318 294 276 301 276 176 291 293 218 261 233 243 238 246 224 278 210 219 225 206 226 223 232 171 246 341 232 203 211 129 241 196 32 1 154 173 184 142 148 94 18 169
305 289 310 294 235 349 284 315 305 288 337 300 214 243 231 243 248 241 241 238 238 257 279 270 232 218 218 231 231 243 242 242 219 221 168 203 239 126 216 309 118 36 145 186 165 144 155 179 185
287 294 293 157 254 332 329 308 317 295 333 203 181 210 232 259 293 227 246 244 234 243 273 274 241 236 243 232 239 234 245 241 260 278 185 198 234 183 185 254 237 93 244 218 43 97 314 307 212
280 263 310 253 323 299 335 343 4 307 260 192 204 233 229 255 230 219 229 240 231 245 259 268 253 239 229 236 231 230 241 230 246 251 188 212 232 202 199 233 234 124 88 73 60 58 349 202 236
311 235 305 325 312 242 334 325 356 20 308 292 295 226 251 242 226 236 232 238 236 256 267 264 234 245 221 243 215 218 223 231 235 246 228 187 232 213 212 219 296 136 124 121 100 86 104 169 162
306 315 301 288 289 270 303 260 279 317 302 273 249 290 247 217 204 220 245 233 241 252 256 275 249 251 234 263 213 223 210 228 234 238 257 215 250 218 222 219 248 215 262 35 123 111 149 138 151
301 291 273 290 278 349 300 281 279 302 305 309 267 252 257 244 232 229 207 226 242 248 261 260 269 241 288 228 236 221 226 229 233 246 265 264 263 235 227 234 249 268 265 228 270 336 331 169 160
288 256 269 293 324 323 303 259 272 299 306 283 269 253 266 241 287 212 248 230 227 246 244 262 281 280 255 254 240 226 230 231 233 239 253 266 276 264 223 232 244 240 248 221 251 261 271 260 220
271 283 305 329 325 299 299 282 303 322 357 47 196 257 253 273 265 252 225 213 225 233 243 251 271 286 256 254 249 237 230 226 223 231 237 245 261 257 242 237 239 235 246 236 221 268 245 245 255
266 290 304 302 289 292 293 98 343 322 344 335 305 264 261 289 250 266 325 215 221 231 212 221 228 253 248 258 257 243 232 225 232 235 241 261 253 254 244 212 229 233 234 238 248 252 252 268 274
269 285 285 277 267 316 254 209 216 231 310 335 337 3 330 315 285 265 245 221 214 214 216 207 198 205 222 247 337 279 245 232 228 230 239 269 250 248 247 241 213 232 251 253 241 230 252 271 255
269 270 279 289 142 246 298 257 216 201 300 295 326 346 329 321 304 268 276 302 275 274 249 231 223 195 187 234 290 302 277 265 246 238 231 239 250 248 233 235 207 219 231 224 235 225 249 242 231
286 276 280 300 67 178 154 201 189 166 228 287 197 94 9 217 314 295 300 326 323 128 305 206 214 203 196 208 261 291 292 284 260 235 230 245 252 230 233 219 209 214 237 234 232 241 251 237 264
290 292 316 323 317 160 121 93 34 329 52 348 301 93 60 348 297 290 296 309 326 51 140 145 183 148 191 294 262 285 271 290 269 240 235 243 271 258 227 215 218 225 235 242 243 256 243 243 273
279 304 310 354 2 1 132 146 141 6 283 272 243 256 90 41 46 12 283 308 355 33 136 149 138 42 335 274 271 257 247 284 280 252 258 257 250 241 224 223 240 233 227 226 236 240 243 243 273
291 334 335 324 293 257 154 242 234 207 179 196 359 4 71 14 64 51 12 291 324 352 313 36 243 269 256 273 310 290 248 253 279 262 241 240 241 235 224 218 243 237 243 228 218 241 235 236 263
337 356 323 299 301 331 318 121 182 260 279 315 358 113 326 13 36 74 59 359 314 303 321 333 288 263 324 257 279 268 239 254 283 284 264 250 245 229 239 216 221 218 252 231 229 247 253 252 260
Height
3185 3184 3182 3177 3185 3172 3181 3185 3180 3182 3183 3181 3181 3180 3180 3182 3183 3188 3187 3189 3190 3191 3194 3197 3200 3200 3201 3202 3204 3206 3207 3208 3209 3211 3211 3212 3213 3215 3216 3217 3218 3219 3220 3221 3223 3225 3225 3226 3227
3185 3184 3186 3179 3183 3180 3183 3179 3182 3184 3185 3182 3182 3179 3178 3179 3180 3181 3186 3189 3192 3193 3195 3198 3200 3202 3202 3203 3204 3205 3207 3208 3210 3211 3212 3213 3213 3215 3216 3218 3219 3220 3220 3220 3221 3223 3224 3223 3223
3189 3186 3184 3184 3185 3186 3186 3184 3185 3185 3186 3185 3186 3182 3180 3179 3179 3181 3187 3190 3193 3196 3196 3198 3201 3203 3203 3204 3205 3206 3207 3209 3210 3210 3211 3212 3213 3215 3216 3217 3218 3219 3219 3220 3220 3221 3222 3221 3223
3188 3186 3187 3188 3186 3187 3186 3187 3184 3186 3187 3190 3191 3185 3184 3182 3179 3183 3186 3192 3194 3197 3198 3199 3201 3203 3204 3205 3206 3207 3208 3209 3209 3210 3211 3212 3213 3214 3215 3216 3217 3218 3218 3218 3218 3219 3221 3219 3222
3189 3187 3189 3187 3189 3191 3188 3187 3186 3185 3190 3192 3189 3188 3186 3187 3182 3180 3185 3190 3196 3197 3198 3199 3201 3202 3204 3205 3207 3208 3209 3210 3209 3210 3212 3213 3213 3213 3214 3215 3216 3217 3217 3217 3216 3218 3220 3220 3220
3188 3188 3190 3187 3188 3189 3187 3184 3181 3185 3191 3188 3181 3189 3190 3189 3185 3181 3184 3189 3194 3197 3197 3198 3200 3203 3204 3205 3207 3208 3209 3209 3210 3210 3211 3212 3212 3213 3213 3214 3215 3216 3216 3216 3215 3216 3217 3218 3218
3189 3191 3190 3189 3188 3188 3188 3187 3185 3186 3190 3189 3184 3189 3191 3190 3187 3184 3184 3189 3193 3197 3198 3199 3200 3203 3205 3205 3207 3208 3209 3209 3210 3209 3210 3212 3213 3213 3214 3214 3214 3214 3213 3214 3215 3215 3215 3216 3217
3191 3192 3191 3190 3190 3190 3189 3189 3185 3184 3185 3183 3187 3190 3189 3187 3187 3185 3187 3191 3194 3197 3198 3198 3200 3203 3205 3207 3207 3207 3208 3209 3209 3209 3209 3211 3213 3214 3215 3214 3214 3213 3213 3213 3215 3215 3216 3216 3216
3191 3191 3191 3191 3192 3192 3190 3187 3186 3182 3180 3184 3186 3186 3186 3186 3186 3188 3188 3188 3193 3196 3197 3198 3200 3203 3205 3207 3207 3207 3208 3209 3208 3208 3208 3210 3212 3212 3213 3213 3213 3212 3211 3211 3213 3214 3215 3216 3216
3191 3190 3190 3189 3190 3189 3188 3187 3186 3183 3182 3182 3184 3184 3186 3187 3186 3188 3190 3190 3191 3194 3196 3198 3199 3202 3204 3206 3207 3207 3207 3208 3208 3207 3207 3209 3211 3212 3211 3212 3213 3212 3211 3210 3211 3214 3215 3215 3216
3190 3190 3189 3188 3188 3189 3188 3187 3184 3186 3186 3184 3185 3185 3185 3186 3189 3189 3191 3193 3193 3192 3195 3197 3199 3200 3203 3205 3206 3207 3207 3207 3207 3205 3208 3209 3211 3213 3212 3211 3210 3211 3211 3211 3211 3214 3216 3216 3215
3190 3189 3188 3188 3188 3188 3188 3188 3188 3186 3189 3187 3187 3187 3191 3189 3189 3191 3192 3192 3193 3192 3193 3196 3199 3199 3201 3203 3205 3206 3208 3208 3206 3205 3207 3209 3211 3213 3212 3210 3210 3211 3211 3211 3211 3213 3215 3215 3217
3189 3189 3189 3189 3188 3187 3188 3189 3190 3183 3187 3185 3189 3189 3188 3190 3189 3190 3192 3194 3193 3193 3195 3196 3198 3199 3198 3201 3202 3204 3205 3205 3206 3204 3204 3206 3208 3209 3210 3210 3212 3211 3213 3211 3210 3211 3214 3214 3215
3189 3189 3187 3188 3188 3189 3188 3188 3188 3187 3186 3180 3182 3186 3184 3188 3187 3189 3189 3191 3190 3193 3197 3197 3199 3199 3199 3201 3201 3202 3203 3205 3205 3204 3205 3205 3207 3208 3203 3210 3210 3211 3211 3211 3210 3212 3214 3213 3213
3188 3187 3186 3187 3187 3187 3187 3187 3184 3184 3183 3179 3178 3183 3184 3186 3185 3184 3185 3188 3189 3190 3193 3197 3198 3199 3199 3199 3200 3200 3203 3204 3204 3203 3204 3204 3206 3208 3209 3208 3209 3210 3210 3207 3206 3209 3212 3212 3212
3187 3186 3184 3184 3185 3185 3186 3184 3181 3182 3183 3182 3181 3182 3183 3185 3185 3184 3181 3183 3185 3185 3189 3193 3194 3194 3196 3197 3197 3199 3200 3202 3203 3202 3203 3204 3205 3208 3209 3210 3213 3210 3208 3200 3207 3208 3211 3213 3212
3185 3184 3185 3186 3185 3184 3184 3181 3181 3181 3181 3181 3180 3178 3179 3179 3183 3183 3181 3180 3182 3185 3188 3188 3190 3193 3194 3196 3196 3197 3199 3201 3202 3202 3202 3204 3205 3207 3208 3210 3210 3211 3207 3209 3208 3209 3211 3210 3212
3184 3184 3185 3185 3185 3184 3184 3181 3179 3176 3173 3180 3180 3177 3172 3176 3182 3184 3181 3180 3182 3184 3187 3188 3190 3193 3191 3192 3194 3196 3197 3200 3201 3201 3201 3203 3204 3206 3208 3210 3210 3208 3208 3210 3211 3211 3211 3210 3212
3184 3184 3185 3183 3183 3183 3181 3180 3180 3180 3177 3173 3175 3171 3169 3171 3173 3180 3179 3179 3179 3182 3185 3187 3188 3189 3190 3191 3192 3194 3196 3198 3199 3200 3199 3201 3202 3204 3206 3209 3209 3209 3208 3210 3211 3211 3210 3212 3209
3182 3184 3183 3181 3181 3182 3180 3176 3176 3176 3175 3173 3172 3167 3168 3169 3176 3183 3182 3179 3179 3179 3181 3185 3187 3188 3188 3190 3192 3193 3194 3196 3196 3197 3198 3198 3200 3203 3203 3206 3208 3210 3210 3211 3212 3211 3210 3210 3212
3181 3181 3180 3182 3180 3179 3176 3173 3174 3173 3169 3166 3166 3167 3165 3167 3172 3176 3178 3174 3174 3175 3177 3181 3182 3183 3187 3187 3189 3190 3191 3193 3194 3195 3196 3195 3198 3201 3203 3204 3206 3208 3209 3211 3211 3210 3210 3209 3210
3180 3179 3181 3179 3180 3177 3176 3175 3172 3171 3168 3164 3164 3165 3165 3167 3168 3174 3177 3177 3174 3171 3174 3176 3181 3184 3185 3185 3186 3187 3189 3192 3192 3193 3194 3194 3197 3199 3201 3203 3205 3207 3208 3209 3208 3210 3210 3208 3208
3179 3178 3178 3178 3177 3176 3175 3171 3173 3171 3169 3168 3166 3168 3166 3166 3162 3161 3162 3171 3170 3170 3168 3175 3179 3182 3184 3184 3183 3185 3186 3188 3188 3190 3192 3194 3195 3196 3198 3201 3203 3204 3205 3207 3209 3209 3207 3206 3207
3176 3176 3175 3174 3173 3179 3170 3166 3167 3167 3168 3168 3168 3163 3166 3160 3160 3164 3159 3157 3139 3160 3158 3167 3174 3177 3182 3181 3181 3182 3182 3183 3184 3187 3191 3192 3193 3195 3196 3198 3200 3202 3205 3206 3207 3207 3206 3206 3206
3174 3174 3171 3170 3169 3168 3167 3167 3165 3167 3171 3169 3169 3165 3166 3163 3163 3162 3160 3157 3154 3158 3161 3166 3172 3172 3174 3178 3179 3179 3180 3180 3182 3185 3189 3187 3191 3193 3193 3197 3199 3201 3203 3204 3207 3206 3205 3205 3205
3171 3171 3169 3170 3169 3167 3164 3159 3167 3168 3169 3170 3170 3162 3166 3164 3162 3160 3161 3160 3160 3154 3156 3154 3168 3167 3162 3174 3176 3176 3177 3177 3178 3181 3185 3188 3189 3189 3190 3194 3197 3199 3201 3203 3204 3205 3204 3204 3202
3169 3168 3168 3165 3160 3160 3163 3169 3173 3170 3176 3173 3172 3167 3166 3164 3163 3163 3162 3163 3160 3156 3158 3164 3164 3164 3166 3171 3174 3174 3175 3176 3176 3178 3181 3183 3184 3186 3189 3191 3193 3195 3198 3200 3201 3203 3203 3203 3201
3169 3169 3165 3165 3166 3166 3167 3165 3167 3165 3167 3171 3170 3157 3160 3168 3160 3162 3161 3159 3159 3159 3161 3162 3164 3163 3165 3170 3173 3175 3174 3176 3175 3175 3177 3179 3181 3183 3185 3189 3192 3192 3194 3196 3197 3199 3201 3200 3199
3166 3166 3166 3164 3164 3161 3165 3160 3159 3159 3164 3163 3162 3154 3164 3165 3164 3157 3160 3160 3158 3160 3162 3161 3161 3163 3167 3170 3173 3174 3173 3174 3174 3174 3175 3177 3179 3181 3185 3189 3190 3191 3192 3193 3194 3196 3197 3198 3196
3166 3167 3168 3165 3163 3159 3155 3164 3160 3160 3159 3158 3159 3164 3168 3163 3163 3162 3161 3160 3159 3160 3160 3162 3165 3166 3166 3169 3172 3173 3173 3173 3173 3172 3174 3174 3176 3179 3182 3185 3186 3189 3189 3190 3192 3193 3194 3195 3194